SCP
0 0 0 0 0 0 1 1 1 1 0 1 1 0 0 0 -0 -0 -0 -0 -0 0 0 0 0 0 0 0 0 0 0 0
0 0 0 0 0 0 2 2 1 2 1 2 1 1 0 0 0 0 0 0 0 0 0 0 0 0 0 0 0 0 0 0
0 0 0 0 0 1 1 3 3 1 6 1 1 0 1 1 0 1 1 0 0 0 0 0 1 0 0 0 0 0 0 0
0 0 0 0 0 1 2 2 5 3 5 9 7 0 1 1 1 1 1 1 0 1 1 1 0 1 0 0 0 0 1 0
0 0 0 0 0 0 1 6 3 3 4 8 9 7 1 1 1 1 1 1 2 1 2 1 0 0 0 0 1 1 1 0
0 0 0 0 0 1 0 2 4 6 5 6 10 12 3 4 2 3 2 2 3 3 2 1 1 1 1 1 1 1 0 0
0 0 0 0 0 1 1 3 6 6 6 4 6 5 4 7 6 3 4 4 2 3 2 1 2 2 1 0 1 1 0 0
0 0 0 0 0 0 2 3 9 8 7 6 7 6 4 3 3 2 3 3 3 2 2 3 2 2 1 0 1 1 0 0
0 0 0 0 0 0 1 4 8 8 6 4 4 2 2 1 1 1 1 2 2 3 4 3 2 1 1 1 0 0 0 1
0 0 0 0 0 0 1 1 5 5 3 7 5 6 2 1 1 2 2 1 2 3 3 3 2 1 1 1 1 0 1 1
0 0 0 0 0 0 0 1 1 3 6 8 10 11 7 4 2 2 1 1 1 4 3 2 1 1 0 1 2 2 1 1
0 0 0 0 0 0 0 0 1 1 2 5 8 9 3 5 5 2 0 1 2 4 2 2 1 1 1 0 1 0 1 1
0 0 0 0 0 0 0 0 0 0 2 3 3 4 2 0 2 4 1 0 4 2 4 3 1 0 1 1 0 0 2 2
0 0 0 0 0 0 0 0 0 0 1 2 4 3 4 2 1 0 1 0 0 0 5 4 2 1 0 0 0 -0 1 3
0 0 0 0 0 0 0 0 0 0 0 1 1 2 2 2 2 3 1 0 1 0 4 1 0 0 0 0 0 -0 4 4
0 0 0 0 0 0 0 0 0 0 0 0 0 0 1 1 1 1 1 2 1 0 1 1 0 0 0 0 1 0 3 5
0 0 0 0 0 0 0 0 0 0 0 0 0 1 1 0 0 1 1 3 1 1 1 0 0 0 2 2 4 3 5 6
0 0 0 0 0 0 0 0 0 0 0 0 0 0 0 0 1 1 1 1 1 1 2 4 2 2 3 4 5 5 6 6
0 0 0 0 0 0 0 0 0 0 0 0 0 0 0 0 0 0 0 1 1 2 3 3 3 3 5 5 7 7 4 4
0 0 0 0 0 0 0 0 0 0 0 0 0 0 0 0 0 0 1 1 1 1 2 2 2 2 4 7 8 5 3 4
Wind_Speed_500mb
13 21 8 11 17 42 51 41 52 59 46 60 68 66 63 59 55 52 49 44 36 27 29 31 31 32 34 34 33 33 35 34
19 20 8 6 23 8 47 47 44 50 45 50 59 67 65 61 58 55 53 49 40 30 29 33 24 21 28 37 35 28 26 26
27 19 11 11 12 32 17 47 47 53 54 44 44 59 66 62 61 61 57 51 46 41 35 27 34 29 26 22 27 28 37 33
43 31 30 16 16 26 21 27 39 39 63 34 46 39 53 55 59 59 60 56 48 45 45 43 39 35 30 32 37 33 39 43
41 33 23 29 28 34 44 29 40 45 56 61 36 33 49 51 47 49 50 49 55 48 51 42 39 40 41 40 46 42 47 47
42 36 30 27 23 33 41 54 36 45 48 71 37 48 46 36 46 51 54 51 51 57 57 50 42 41 41 46 46 51 52 43
39 37 28 28 28 33 34 46 45 48 44 49 65 54 47 59 40 59 51 59 59 58 62 56 52 50 44 50 52 53 40 31
34 29 24 27 25 29 36 54 53 55 50 43 52 72 69 60 67 52 57 58 57 57 56 60 57 57 47 52 55 58 55 39
32 15 27 18 23 26 26 47 56 52 57 54 44 36 24 64 81 77 67 62 68 69 61 61 66 64 52 52 55 60 50 47
37 35 25 26 16 24 21 22 33 50 67 58 59 65 55 41 45 60 62 59 60 62 61 68 71 62 58 53 57 58 56 54
47 45 44 31 30 26 19 18 21 26 33 66 76 61 80 79 58 49 50 61 82 73 81 81 79 74 67 66 82 68 66 66
31 36 37 31 24 22 24 22 20 19 30 41 46 70 83 112 78 51 49 44 58 61 63 72 70 61 75 73 78 79 73 74
24 28 31 31 32 23 15 20 21 22 28 31 33 48 57 78 93 98 59 48 50 57 48 57 56 61 66 83 76 97 83 70
22 28 19 18 19 17 17 12 15 15 22 23 31 42 43 58 67 87 93 70 76 69 64 44 48 56 97 98 79 92 87 71
15 24 21 17 17 16 15 15 12 14 21 16 25 32 42 54 62 53 53 94 98 85 97 89 96 103 103 79 87 136 83 82
18 22 31 37 29 22 20 15 14 20 21 27 31 32 34 46 45 51 57 62 61 61 57 81 113 124 130 106 70 75 79 80
22 26 24 21 14 12 14 21 29 33 30 32 35 38 42 47 49 44 45 48 59 68 59 73 112 99 72 75 91 82 84 73
24 13 14 23 25 30 33 36 41 39 38 42 43 44 42 43 48 51 51 63 64 64 70 38 61 68 68 73 79 67 75 67
16 24 26 20 23 28 34 36 38 43 44 43 41 40 42 43 46 51 54 57 59 55 52 69 62 67 75 74 77 77 63 56
32 32 29 19 26 35 38 37 36 41 49 52 54 51 49 46 47 48 53 57 61 59 53 58 66 82 85 85 81 70 59 56
Wind_Direction_500mb
309 298 300 326 250 185 199 210 204 190 185 202 200 204 205 207 210 209 208 211 216 224 236 242 248 254 261 265 269 275 279 280
284 289 3 319 288 204 194 204 206 192 180 221 209 209 211 211 214 215 214 215 212 225 239 245 264 268 269 267 271 276 280 292
261 245 267 241 259 232 197 195 202 203 179 218 234 216 216 216 217 220 220 218 218 216 221 231 256 273 291 284 288 273 277 292
247 240 239 229 221 200 189 211 204 206 191 188 201 229 220 218 221 222 223 225 221 222 231 228 215 239 258 275 277 279 259 268
256 230 229 223 212 206 211 212 221 223 214 204 196 203 213 224 219 231 234 230 227 224 238 236 244 237 243 235 237 249 259 262
242 224 212 197 202 208 206 210 226 230 233 218 210 194 213 211 224 220 234 239 235 223 235 243 253 252 248 250 253 251 257 260
253 204 196 209 214 218 198 205 210 228 240 228 222 224 223 207 211 221 227 237 244 241 241 244 244 248 245 251 260 263 269 268
248 197 191 200 221 239 205 191 197 210 214 217 211 223 223 220 221 221 226 236 247 250 248 250 244 250 252 251 256 270 271 268
227 189 185 195 224 246 226 210 192 192 194 201 203 218 228 237 238 237 225 234 250 253 256 251 253 251 256 266 265 271 268 267
211 217 199 196 215 236 230 221 217 217 222 221 240 234 245 246 260 252 246 244 241 242 255 263 264 259 263 269 274 275 274 266
212 208 212 213 220 224 238 228 225 218 232 232 221 230 232 247 249 255 255 250 247 253 261 269 269 267 267 262 261 267 275 272
211 194 192 196 209 222 240 233 233 222 224 223 230 232 240 244 252 257 269 268 258 262 265 263 260 273 265 268 262 268 267 261
201 215 220 222 224 223 253 254 251 243 219 209 235 224 244 242 243 252 254 244 247 252 265 266 277 261 260 261 260 267 262 260
206 191 183 218 219 228 249 231 273 248 260 225 242 232 236 249 247 242 236 240 246 252 250 262 260 276 280 275 275 264 256 256
197 169 178 196 192 220 227 255 266 290 290 286 230 233 223 242 238 233 238 236 241 242 262 246 255 244 245 266 275 263 247 251
206 202 189 188 199 211 223 248 272 278 274 273 273 272 264 260 259 253 251 254 240 247 254 238 235 242 244 241 247 245 243 248
208 193 205 214 228 202 253 257 253 259 274 269 264 264 261 263 263 250 242 251 252 251 251 267 236 237 236 242 243 242 241 243
203 205 230 241 246 260 261 261 258 264 265 260 269 262 266 270 264 259 251 247 248 250 233 252 248 242 235 241 244 246 241 243
250 250 255 274 290 293 286 279 274 271 273 266 258 266 261 265 263 265 259 256 257 255 241 244 249 244 240 239 247 246 243 235
245 253 254 244 275 282 291 293 288 279 274 264 259 257 255 261 260 262 257 257 254 258 256 251 244 241 245 247 247 242 229 230
Wind_Speed_850mb
13 21 8 11 17 42 51 41 52 59 46 60 68 66 63 59 55 52 49 44 36 27 29 31 31 32 34 34 33 33 35 34
19 20 8 6 23 8 47 47 44 50 45 50 59 67 65 61 58 55 53 49 40 30 29 33 24 21 28 37 35 28 26 26
27 19 11 11 12 32 17 47 47 53 54 44 44 59 66 62 61 61 57 51 46 41 35 27 34 29 26 22 27 28 37 33
43 31 30 16 16 26 21 27 39 39 63 34 46 39 53 55 59 59 60 56 48 45 45 43 39 35 30 32 37 33 39 43
41 33 23 29 28 34 44 29 40 45 56 61 36 33 49 51 47 49 50 49 55 48 51 42 39 40 41 40 46 42 47 47
42 36 30 27 23 33 41 54 36 45 48 71 37 48 46 36 46 51 54 51 51 57 57 50 42 41 41 46 46 51 52 43
39 37 28 28 28 33 34 46 45 48 44 49 65 54 47 59 40 59 51 59 59 58 62 56 52 50 44 50 52 53 40 31
34 29 24 27 25 29 36 54 53 55 50 43 52 72 69 60 67 52 57 58 57 57 56 60 57 57 47 52 55 58 55 39
32 15 27 18 23 26 26 47 56 52 57 54 44 36 24 64 81 77 67 62 68 69 61 61 66 64 52 52 55 60 50 47
37 35 25 26 16 24 21 22 33 50 67 58 59 65 55 41 45 60 62 59 60 62 61 68 71 62 58 53 57 58 56 54
47 45 44 31 30 26 19 18 21 26 33 66 76 61 80 79 58 49 50 61 82 73 81 81 79 74 67 66 82 68 66 66
31 36 37 31 24 22 24 22 20 19 30 41 46 70 83 112 78 51 49 44 58 61 63 72 70 61 75 73 78 79 73 74
24 28 31 31 32 23 15 20 21 22 28 31 33 48 57 78 93 98 59 48 50 57 48 57 56 61 66 83 76 97 83 70
22 28 19 18 19 17 17 12 15 15 22 23 31 42 43 58 67 87 93 70 76 69 64 44 48 56 97 98 79 92 87 71
15 24 21 17 17 16 15 15 12 14 21 16 25 32 42 54 62 53 53 94 98 85 97 89 96 103 103 79 87 136 83 82
18 22 31 37 29 22 20 15 14 20 21 27 31 32 34 46 45 51 57 62 61 61 57 81 113 124 130 106 70 75 79 80
22 26 24 21 14 12 14 21 29 33 30 32 35 38 42 47 49 44 45 48 59 68 59 73 112 99 72 75 91 82 84 73
24 13 14 23 25 30 33 36 41 39 38 42 43 44 42 43 48 51 51 63 64 64 70 38 61 68 68 73 79 67 75 67
16 24 26 20 23 28 34 36 38 43 44 43 41 40 42 43 46 51 54 57 59 55 52 69 62 67 75 74 77 77 63 56
32 32 29 19 26 35 38 37 36 41 49 52 54 51 49 46 47 48 53 57 61 59 53 58 66 82 85 85 81 70 59 56
Wind_Direction_850mb
309 298 300 326 250 185 199 210 204 190 185 202 200 204 205 207 210 209 208 211 216 224 236 242 248 254 261 265 269 275 279 280
284 289 3 319 288 204 194 204 206 192 180 221 209 209 211 211 214 215 214 215 212 225 239 245 264 268 269 267 271 276 280 292
261 245 267 241 259 232 197 195 202 203 179 218 234 216 216 216 217 220 220 218 218 216 221 231 256 273 291 284 288 273 277 292
247 240 239 229 221 200 189 211 204 206 191 188 201 229 220 218 221 222 223 225 221 222 231 228 215 239 258 275 277 279 259 268
256 230 229 223 212 206 211 212 221 223 214 204 196 203 213 224 219 231 234 230 227 224 238 236 244 237 243 235 237 249 259 262
242 224 212 197 202 208 206 210 226 230 233 218 210 194 213 211 224 220 234 239 235 223 235 243 253 252 248 250 253 251 257 260
253 204 196 209 214 218 198 205 210 228 240 228 222 224 223 207 211 221 227 237 244 241 241 244 244 248 245 251 260 263 269 268
248 197 191 200 221 239 205 191 197 210 214 217 211 223 223 220 221 221 226 236 247 250 248 250 244 250 252 251 256 270 271 268
227 189 185 195 224 246 226 210 192 192 194 201 203 218 228 237 238 237 225 234 250 253 256 251 253 251 256 266 265 271 268 267
211 217 199 196 215 236 230 221 217 217 222 221 240 234 245 246 260 252 246 244 241 242 255 263 264 259 263 269 274 275 274 266
212 208 212 213 220 224 238 228 225 218 232 232 221 230 232 247 249 255 255 250 247 253 261 269 269 267 267 262 261 267 275 272
211 194 192 196 209 222 240 233 233 222 224 223 230 232 240 244 252 257 269 268 258 262 265 263 260 273 265 268 262 268 267 261
201 215 220 222 224 223 253 254 251 243 219 209 235 224 244 242 243 252 254 244 247 252 265 266 277 261 260 261 260 267 262 260
206 191 183 218 219 228 249 231 273 248 260 225 242 232 236 249 247 242 236 240 246 252 250 262 260 276 280 275 275 264 256 256
197 169 178 196 192 220 227 255 266 290 290 286 230 233 223 242 238 233 238 236 241 242 262 246 255 244 245 266 275 263 247 251
206 202 189 188 199 211 223 248 272 278 274 273 273 272 264 260 259 253 251 254 240 247 254 238 235 242 244 241 247 245 243 248
208 193 205 214 228 202 253 257 253 259 274 269 264 264 261 263 263 250 242 251 252 251 251 267 236 237 236 242 243 242 241 243
203 205 230 241 246 260 261 261 258 264 265 260 269 262 266 270 264 259 251 247 248 250 233 252 248 242 235 241 244 246 241 243
250 250 255 274 290 293 286 279 274 271 273 266 258 266 261 265 263 265 259 256 257 255 241 244 249 244 240 239 247 246 243 235
245 253 254 244 275 282 291 293 288 279 274 264 259 257 255 261 260 262 257 257 254 258 256 251 244 241 245 247 247 242 229 230